<?xml version="1.0" encoding="UTF-8" standalone="no" ?>
<gpx xmlns="http://www.topografix.com/GPX/1/1" creator="MapSource 6.11.6" version="1.1" xmlns:xsi="http://www.w3.org/2001/XMLSchema-instance" xsi:schemaLocation="http://www.topografix.com/GPX/1/1 http://www.topografix.com/GPX/1/1/gpx.xsd">

  <metadata>
    <link href="http://www.garmin.com">
      <text>Garmin International</text>
    </link>
    <time>2010-01-30T12:31:57Z</time>
    <bounds maxlat="50.578223" maxlon="6.290087" minlat="50.560928" minlon="6.251903"/>
  </metadata>

  <trk>
    <name>Panzersperren Imgenbroich</name>
    <extensions>
      <gpxx:TrackExtension xmlns:gpxx="http://www.garmin.com/xmlschemas/GpxExtensions/v3" xmlns:xsi="http://www.w3.org/2001/XMLSchema-instance" xsi:schemaLocation="http://www.garmin.com/xmlschemas/GpxExtensions/v3 http://www.garmin.com/xmlschemas/GpxExtensions/v3/GpxExtensionsv3.xsd">
        <gpxx:DisplayColor>White</gpxx:DisplayColor>
      </gpxx:TrackExtension>
    </extensions>
    <trkseg>
      <trkpt lat="50.573738" lon="6.263610">
        <ele>0.000000</ele>
        <time>2009-07-28T11:34:09Z</time>
      </trkpt>
      <trkpt lat="50.573789" lon="6.263843">
        <ele>0.000000</ele>
        <time>2009-07-28T11:34:09Z</time>
      </trkpt>
      <trkpt lat="50.573812" lon="6.263999">
        <ele>0.000000</ele>
        <time>2009-07-28T11:34:09Z</time>
      </trkpt>
      <trkpt lat="50.573823" lon="6.264446">
        <ele>0.000000</ele>
        <time>2009-07-28T11:34:09Z</time>
      </trkpt>
      <trkpt lat="50.573853" lon="6.264590">
        <ele>0.000000</ele>
        <time>2009-07-28T11:34:09Z</time>
      </trkpt>
      <trkpt lat="50.574046" lon="6.265244">
        <ele>0.000000</ele>
        <time>2009-07-28T11:34:09Z</time>
      </trkpt>
      <trkpt lat="50.573459" lon="6.265672">
        <ele>0.000000</ele>
        <time>2009-07-28T11:34:09Z</time>
      </trkpt>
      <trkpt lat="50.573689" lon="6.266469">
        <ele>0.000000</ele>
        <time>2009-07-28T11:34:09Z</time>
      </trkpt>
      <trkpt lat="50.574106" lon="6.267825">
        <ele>0.000000</ele>
        <time>2009-07-28T11:34:09Z</time>
      </trkpt>
      <trkpt lat="50.574254" lon="6.268361">
        <ele>0.000000</ele>
        <time>2009-07-28T11:34:09Z</time>
      </trkpt>
      <trkpt lat="50.574406" lon="6.268757">
        <ele>0.000000</ele>
        <time>2009-07-28T11:34:09Z</time>
      </trkpt>
      <trkpt lat="50.574605" lon="6.269381">
        <ele>0.000000</ele>
        <time>2009-07-28T11:34:09Z</time>
      </trkpt>
      <trkpt lat="50.574863" lon="6.270038">
        <ele>0.000000</ele>
        <time>2009-07-28T11:34:09Z</time>
      </trkpt>
      <trkpt lat="50.575182" lon="6.270649">
        <ele>0.000000</ele>
        <time>2009-07-28T11:34:09Z</time>
      </trkpt>
      <trkpt lat="50.575516" lon="6.271083">
        <ele>0.000000</ele>
        <time>2009-07-28T11:34:09Z</time>
      </trkpt>
      <trkpt lat="50.575876" lon="6.271474">
        <ele>0.000000</ele>
        <time>2009-07-28T11:34:09Z</time>
      </trkpt>
      <trkpt lat="50.576328" lon="6.271863">
        <ele>0.000000</ele>
        <time>2009-07-28T11:34:09Z</time>
      </trkpt>
      <trkpt lat="50.576492" lon="6.271949">
        <ele>0.000000</ele>
        <time>2009-07-28T11:34:09Z</time>
      </trkpt>
      <trkpt lat="50.576764" lon="6.272185">
        <ele>0.000000</ele>
        <time>2009-07-28T11:34:09Z</time>
      </trkpt>
      <trkpt lat="50.576764" lon="6.272678">
        <ele>0.000000</ele>
        <time>2009-07-28T11:34:09Z</time>
      </trkpt>
      <trkpt lat="50.577008" lon="6.272922">
        <ele>0.000000</ele>
        <time>2009-07-28T11:34:09Z</time>
      </trkpt>
      <trkpt lat="50.577173" lon="6.273000">
        <ele>0.000000</ele>
        <time>2009-07-28T11:34:09Z</time>
      </trkpt>
      <trkpt lat="50.577257" lon="6.273518">
        <ele>0.000000</ele>
        <time>2009-07-28T11:34:09Z</time>
      </trkpt>
      <trkpt lat="50.577427" lon="6.274017">
        <ele>0.000000</ele>
        <time>2009-07-28T11:34:09Z</time>
      </trkpt>
      <trkpt lat="50.577527" lon="6.274481">
        <ele>0.000000</ele>
        <time>2009-07-28T11:34:09Z</time>
      </trkpt>
      <trkpt lat="50.577718" lon="6.275232">
        <ele>0.000000</ele>
        <time>2009-07-28T11:34:09Z</time>
      </trkpt>
      <trkpt lat="50.578045" lon="6.276691">
        <ele>0.000000</ele>
        <time>2009-07-28T11:34:09Z</time>
      </trkpt>
      <trkpt lat="50.578223" lon="6.277614">
        <ele>0.000000</ele>
        <time>2009-07-28T11:34:09Z</time>
      </trkpt>
      <trkpt lat="50.578199" lon="6.277718">
        <ele>0.000000</ele>
        <time>2009-07-28T11:34:09Z</time>
      </trkpt>
      <trkpt lat="50.578043" lon="6.277945">
        <ele>0.000000</ele>
        <time>2009-07-28T11:34:09Z</time>
      </trkpt>
      <trkpt lat="50.577927" lon="6.278267">
        <ele>0.000000</ele>
        <time>2009-07-28T11:34:09Z</time>
      </trkpt>
      <trkpt lat="50.577860" lon="6.278367">
        <ele>0.000000</ele>
        <time>2009-07-28T11:34:09Z</time>
      </trkpt>
      <trkpt lat="50.577715" lon="6.278588">
        <ele>0.000000</ele>
        <time>2009-07-28T11:34:09Z</time>
      </trkpt>
      <trkpt lat="50.577575" lon="6.278868">
        <ele>0.000000</ele>
        <time>2009-07-28T11:34:09Z</time>
      </trkpt>
      <trkpt lat="50.577419" lon="6.279159">
        <ele>0.000000</ele>
        <time>2009-07-28T11:34:09Z</time>
      </trkpt>
      <trkpt lat="50.577309" lon="6.279373">
        <ele>0.000000</ele>
        <time>2009-07-28T11:34:09Z</time>
      </trkpt>
      <trkpt lat="50.576744" lon="6.279745">
        <ele>0.000000</ele>
        <time>2009-07-28T11:34:09Z</time>
      </trkpt>
      <trkpt lat="50.576658" lon="6.279853">
        <ele>0.000000</ele>
        <time>2009-07-28T11:34:09Z</time>
      </trkpt>
      <trkpt lat="50.576288" lon="6.280195">
        <ele>0.000000</ele>
        <time>2009-07-28T11:34:09Z</time>
      </trkpt>
      <trkpt lat="50.576148" lon="6.280312">
        <ele>0.000000</ele>
        <time>2009-07-28T11:34:09Z</time>
      </trkpt>
      <trkpt lat="50.576030" lon="6.280343">
        <ele>0.000000</ele>
        <time>2009-07-28T11:34:09Z</time>
      </trkpt>
      <trkpt lat="50.575872" lon="6.280364">
        <ele>0.000000</ele>
        <time>2009-07-28T11:34:09Z</time>
      </trkpt>
      <trkpt lat="50.575633" lon="6.280553">
        <ele>0.000000</ele>
        <time>2009-07-28T11:34:09Z</time>
      </trkpt>
      <trkpt lat="50.575511" lon="6.280639">
        <ele>0.000000</ele>
        <time>2009-07-28T11:34:09Z</time>
      </trkpt>
      <trkpt lat="50.575415" lon="6.281261">
        <ele>0.000000</ele>
        <time>2009-07-28T11:34:09Z</time>
      </trkpt>
      <trkpt lat="50.575235" lon="6.281641">
        <ele>0.000000</ele>
        <time>2009-07-28T11:34:09Z</time>
      </trkpt>
      <trkpt lat="50.575102" lon="6.281841">
        <ele>0.000000</ele>
        <time>2009-07-28T11:34:09Z</time>
      </trkpt>
      <trkpt lat="50.574952" lon="6.282248">
        <ele>0.000000</ele>
        <time>2009-07-28T11:34:09Z</time>
      </trkpt>
      <trkpt lat="50.574884" lon="6.282742">
        <ele>0.000000</ele>
        <time>2009-07-28T11:34:09Z</time>
      </trkpt>
      <trkpt lat="50.574775" lon="6.283364">
        <ele>0.000000</ele>
        <time>2009-07-28T11:34:09Z</time>
      </trkpt>
      <trkpt lat="50.574502" lon="6.283321">
        <ele>0.000000</ele>
        <time>2009-07-28T11:34:09Z</time>
      </trkpt>
      <trkpt lat="50.574502" lon="6.283772">
        <ele>0.000000</ele>
        <time>2009-07-28T11:34:09Z</time>
      </trkpt>
      <trkpt lat="50.574153" lon="6.284154">
        <ele>0.000000</ele>
        <time>2009-07-28T11:34:09Z</time>
      </trkpt>
      <trkpt lat="50.573984" lon="6.284345">
        <ele>0.000000</ele>
        <time>2009-07-28T11:34:09Z</time>
      </trkpt>
      <trkpt lat="50.573930" lon="6.284523">
        <ele>0.000000</ele>
        <time>2009-07-28T11:34:09Z</time>
      </trkpt>
      <trkpt lat="50.573780" lon="6.284738">
        <ele>0.000000</ele>
        <time>2009-07-28T11:34:09Z</time>
      </trkpt>
      <trkpt lat="50.573646" lon="6.284728">
        <ele>0.000000</ele>
        <time>2009-07-28T11:34:09Z</time>
      </trkpt>
      <trkpt lat="50.573589" lon="6.284502">
        <ele>0.000000</ele>
        <time>2009-07-28T11:34:09Z</time>
      </trkpt>
      <trkpt lat="50.573535" lon="6.284330">
        <ele>0.000000</ele>
        <time>2009-07-28T11:34:09Z</time>
      </trkpt>
      <trkpt lat="50.573414" lon="6.284027">
        <ele>0.000000</ele>
        <time>2009-07-28T11:34:09Z</time>
      </trkpt>
      <trkpt lat="50.573340" lon="6.283656">
        <ele>0.000000</ele>
        <time>2009-07-28T11:34:09Z</time>
      </trkpt>
      <trkpt lat="50.573194" lon="6.283321">
        <ele>0.000000</ele>
        <time>2009-07-28T11:34:09Z</time>
      </trkpt>
      <trkpt lat="50.573126" lon="6.283107">
        <ele>0.000000</ele>
        <time>2009-07-28T11:34:09Z</time>
      </trkpt>
      <trkpt lat="50.573054" lon="6.282947">
        <ele>0.000000</ele>
        <time>2009-07-28T11:34:09Z</time>
      </trkpt>
      <trkpt lat="50.572954" lon="6.282783">
        <ele>0.000000</ele>
        <time>2009-07-28T11:34:09Z</time>
      </trkpt>
      <trkpt lat="50.572836" lon="6.282542">
        <ele>0.000000</ele>
        <time>2009-07-28T11:34:09Z</time>
      </trkpt>
      <trkpt lat="50.572744" lon="6.282384">
        <ele>0.000000</ele>
        <time>2009-07-28T11:34:09Z</time>
      </trkpt>
      <trkpt lat="50.572608" lon="6.282141">
        <ele>0.000000</ele>
        <time>2009-07-28T11:34:09Z</time>
      </trkpt>
      <trkpt lat="50.572540" lon="6.281969">
        <ele>0.000000</ele>
        <time>2009-07-28T11:34:09Z</time>
      </trkpt>
      <trkpt lat="50.572268" lon="6.281905">
        <ele>0.000000</ele>
        <time>2009-07-28T11:34:09Z</time>
      </trkpt>
      <trkpt lat="50.571998" lon="6.281973">
        <ele>0.000000</ele>
        <time>2009-07-28T11:34:09Z</time>
      </trkpt>
      <trkpt lat="50.571832" lon="6.281940">
        <ele>0.000000</ele>
        <time>2009-07-28T11:34:09Z</time>
      </trkpt>
      <trkpt lat="50.571663" lon="6.281980">
        <ele>0.000000</ele>
        <time>2009-07-28T11:34:09Z</time>
      </trkpt>
      <trkpt lat="50.571436" lon="6.281819">
        <ele>0.000000</ele>
        <time>2009-07-28T11:34:09Z</time>
      </trkpt>
      <trkpt lat="50.571259" lon="6.281648">
        <ele>0.000000</ele>
        <time>2009-07-28T11:34:09Z</time>
      </trkpt>
      <trkpt lat="50.571123" lon="6.281390">
        <ele>0.000000</ele>
        <time>2009-07-28T11:34:09Z</time>
      </trkpt>
      <trkpt lat="50.571000" lon="6.281047">
        <ele>0.000000</ele>
        <time>2009-07-28T11:34:09Z</time>
      </trkpt>
      <trkpt lat="50.570946" lon="6.280639">
        <ele>0.000000</ele>
        <time>2009-07-28T11:34:09Z</time>
      </trkpt>
      <trkpt lat="50.570687" lon="6.280897">
        <ele>0.000000</ele>
        <time>2009-07-28T11:34:09Z</time>
      </trkpt>
      <trkpt lat="50.570591" lon="6.280940">
        <ele>0.000000</ele>
        <time>2009-07-28T11:34:09Z</time>
      </trkpt>
      <trkpt lat="50.570589" lon="6.281025">
        <ele>0.000000</ele>
        <time>2009-07-28T11:34:09Z</time>
      </trkpt>
      <trkpt lat="50.570544" lon="6.281064">
        <ele>0.000000</ele>
        <time>2009-07-28T11:34:09Z</time>
      </trkpt>
      <trkpt lat="50.570423" lon="6.281501">
        <ele>0.000000</ele>
        <time>2009-07-28T11:34:09Z</time>
      </trkpt>
      <trkpt lat="50.570405" lon="6.281744">
        <ele>0.000000</ele>
        <time>2009-07-28T11:34:09Z</time>
      </trkpt>
      <trkpt lat="50.570370" lon="6.282212">
        <ele>0.000000</ele>
        <time>2009-07-28T11:34:09Z</time>
      </trkpt>
      <trkpt lat="50.570335" lon="6.282359">
        <ele>0.000000</ele>
        <time>2009-07-28T11:34:09Z</time>
      </trkpt>
      <trkpt lat="50.570284" lon="6.282483">
        <ele>0.000000</ele>
        <time>2009-07-28T11:34:09Z</time>
      </trkpt>
      <trkpt lat="50.570161" lon="6.282659">
        <ele>0.000000</ele>
        <time>2009-07-28T11:34:09Z</time>
      </trkpt>
      <trkpt lat="50.569947" lon="6.282902">
        <ele>0.000000</ele>
        <time>2009-07-28T11:34:09Z</time>
      </trkpt>
      <trkpt lat="50.569701" lon="6.283279">
        <ele>0.000000</ele>
        <time>2009-07-28T11:34:09Z</time>
      </trkpt>
      <trkpt lat="50.569503" lon="6.283708">
        <ele>0.000000</ele>
        <time>2009-07-28T11:34:09Z</time>
      </trkpt>
      <trkpt lat="50.569342" lon="6.284086">
        <ele>0.000000</ele>
        <time>2009-07-28T11:34:09Z</time>
      </trkpt>
      <trkpt lat="50.569185" lon="6.284761">
        <ele>0.000000</ele>
        <time>2009-07-28T11:34:09Z</time>
      </trkpt>
      <trkpt lat="50.569088" lon="6.284918">
        <ele>0.000000</ele>
        <time>2009-07-28T11:34:09Z</time>
      </trkpt>
      <trkpt lat="50.569014" lon="6.285212">
        <ele>0.000000</ele>
        <time>2009-07-28T11:34:09Z</time>
      </trkpt>
      <trkpt lat="50.568853" lon="6.285591">
        <ele>0.000000</ele>
        <time>2009-07-28T11:34:09Z</time>
      </trkpt>
      <trkpt lat="50.568741" lon="6.285899">
        <ele>0.000000</ele>
        <time>2009-07-28T11:34:09Z</time>
      </trkpt>
      <trkpt lat="50.568570" lon="6.286139">
        <ele>0.000000</ele>
        <time>2009-07-28T11:34:09Z</time>
      </trkpt>
      <trkpt lat="50.568415" lon="6.286275">
        <ele>0.000000</ele>
        <time>2009-07-28T11:34:09Z</time>
      </trkpt>
      <trkpt lat="50.568199" lon="6.286457">
        <ele>0.000000</ele>
        <time>2009-07-28T11:34:09Z</time>
      </trkpt>
      <trkpt lat="50.568027" lon="6.286673">
        <ele>0.000000</ele>
        <time>2009-07-28T11:34:09Z</time>
      </trkpt>
      <trkpt lat="50.567866" lon="6.286798">
        <ele>0.000000</ele>
        <time>2009-07-28T11:34:09Z</time>
      </trkpt>
      <trkpt lat="50.567866" lon="6.286905">
        <ele>0.000000</ele>
        <time>2009-07-28T11:34:09Z</time>
      </trkpt>
      <trkpt lat="50.567715" lon="6.287034">
        <ele>0.000000</ele>
        <time>2009-07-28T11:34:09Z</time>
      </trkpt>
      <trkpt lat="50.567661" lon="6.287398">
        <ele>0.000000</ele>
        <time>2009-07-28T11:34:09Z</time>
      </trkpt>
      <trkpt lat="50.567394" lon="6.288089">
        <ele>0.000000</ele>
        <time>2009-07-28T11:34:09Z</time>
      </trkpt>
      <trkpt lat="50.567320" lon="6.288385">
        <ele>0.000000</ele>
        <time>2009-07-28T11:34:09Z</time>
      </trkpt>
      <trkpt lat="50.567211" lon="6.288857">
        <ele>0.000000</ele>
        <time>2009-07-28T11:34:09Z</time>
      </trkpt>
      <trkpt lat="50.567075" lon="6.289135">
        <ele>0.000000</ele>
        <time>2009-07-28T11:34:09Z</time>
      </trkpt>
      <trkpt lat="50.567001" lon="6.289267">
        <ele>0.000000</ele>
        <time>2009-07-28T11:34:09Z</time>
      </trkpt>
      <trkpt lat="50.566884" lon="6.289376">
        <ele>0.000000</ele>
        <time>2009-07-28T11:34:09Z</time>
      </trkpt>
      <trkpt lat="50.566579" lon="6.289533">
        <ele>0.000000</ele>
        <time>2009-07-28T11:34:09Z</time>
      </trkpt>
      <trkpt lat="50.566385" lon="6.289635">
        <ele>0.000000</ele>
        <time>2009-07-28T11:34:09Z</time>
      </trkpt>
      <trkpt lat="50.566147" lon="6.289818">
        <ele>0.000000</ele>
        <time>2009-07-28T11:34:09Z</time>
      </trkpt>
      <trkpt lat="50.565850" lon="6.289974">
        <ele>0.000000</ele>
        <time>2009-07-28T11:34:09Z</time>
      </trkpt>
      <trkpt lat="50.565636" lon="6.290077">
        <ele>0.000000</ele>
        <time>2009-07-28T11:34:09Z</time>
      </trkpt>
      <trkpt lat="50.565575" lon="6.290087">
        <ele>0.000000</ele>
        <time>2009-07-28T11:34:09Z</time>
      </trkpt>
      <trkpt lat="50.565497" lon="6.290049">
        <ele>0.000000</ele>
        <time>2009-07-28T11:34:09Z</time>
      </trkpt>
      <trkpt lat="50.565460" lon="6.289960">
        <ele>0.000000</ele>
        <time>2009-07-28T11:34:09Z</time>
      </trkpt>
      <trkpt lat="50.565671" lon="6.289651">
        <ele>0.000000</ele>
        <time>2009-07-28T11:34:09Z</time>
      </trkpt>
      <trkpt lat="50.565767" lon="6.289415">
        <ele>0.000000</ele>
        <time>2009-07-28T11:34:09Z</time>
      </trkpt>
      <trkpt lat="50.565821" lon="6.289093">
        <ele>0.000000</ele>
        <time>2009-07-28T11:34:09Z</time>
      </trkpt>
      <trkpt lat="50.565876" lon="6.288814">
        <ele>0.000000</ele>
        <time>2009-07-28T11:34:09Z</time>
      </trkpt>
      <trkpt lat="50.565924" lon="6.288542">
        <ele>0.000000</ele>
        <time>2009-07-28T11:34:09Z</time>
      </trkpt>
      <trkpt lat="50.565944" lon="6.288042">
        <ele>0.000000</ele>
        <time>2009-07-28T11:34:09Z</time>
      </trkpt>
      <trkpt lat="50.565985" lon="6.287570">
        <ele>0.000000</ele>
        <time>2009-07-28T11:34:09Z</time>
      </trkpt>
      <trkpt lat="50.565971" lon="6.287205">
        <ele>0.000000</ele>
        <time>2009-07-28T11:34:09Z</time>
      </trkpt>
      <trkpt lat="50.565916" lon="6.286690">
        <ele>0.000000</ele>
        <time>2009-07-28T11:34:09Z</time>
      </trkpt>
      <trkpt lat="50.565876" lon="6.286261">
        <ele>0.000000</ele>
        <time>2009-07-28T11:34:09Z</time>
      </trkpt>
      <trkpt lat="50.565767" lon="6.285896">
        <ele>0.000000</ele>
        <time>2009-07-28T11:34:09Z</time>
      </trkpt>
      <trkpt lat="50.565657" lon="6.285253">
        <ele>0.000000</ele>
        <time>2009-07-28T11:34:09Z</time>
      </trkpt>
      <trkpt lat="50.565480" lon="6.284759">
        <ele>0.000000</ele>
        <time>2009-07-28T11:34:09Z</time>
      </trkpt>
      <trkpt lat="50.565262" lon="6.284008">
        <ele>0.000000</ele>
        <time>2009-07-28T11:34:09Z</time>
      </trkpt>
      <trkpt lat="50.565017" lon="6.283235">
        <ele>0.000000</ele>
        <time>2009-07-28T11:34:09Z</time>
      </trkpt>
      <trkpt lat="50.564785" lon="6.282613">
        <ele>0.000000</ele>
        <time>2009-07-28T11:34:09Z</time>
      </trkpt>
      <trkpt lat="50.564513" lon="6.281862">
        <ele>0.000000</ele>
        <time>2009-07-28T11:34:09Z</time>
      </trkpt>
      <trkpt lat="50.564308" lon="6.281154">
        <ele>0.000000</ele>
        <time>2009-07-28T11:34:09Z</time>
      </trkpt>
      <trkpt lat="50.564281" lon="6.280982">
        <ele>0.000000</ele>
        <time>2009-07-28T11:34:09Z</time>
      </trkpt>
      <trkpt lat="50.564090" lon="6.281004">
        <ele>0.000000</ele>
        <time>2009-07-28T11:34:09Z</time>
      </trkpt>
      <trkpt lat="50.564022" lon="6.280682">
        <ele>0.000000</ele>
        <time>2009-07-28T11:34:09Z</time>
      </trkpt>
      <trkpt lat="50.563981" lon="6.280425">
        <ele>0.000000</ele>
        <time>2009-07-28T11:34:09Z</time>
      </trkpt>
      <trkpt lat="50.563954" lon="6.280231">
        <ele>0.000000</ele>
        <time>2009-07-28T11:34:09Z</time>
      </trkpt>
      <trkpt lat="50.563967" lon="6.280017">
        <ele>0.000000</ele>
        <time>2009-07-28T11:34:09Z</time>
      </trkpt>
      <trkpt lat="50.564067" lon="6.279779">
        <ele>0.000000</ele>
        <time>2009-07-28T11:34:09Z</time>
      </trkpt>
      <trkpt lat="50.564098" lon="6.279475">
        <ele>0.000000</ele>
        <time>2009-07-28T11:34:09Z</time>
      </trkpt>
      <trkpt lat="50.564078" lon="6.279089">
        <ele>0.000000</ele>
        <time>2009-07-28T11:34:09Z</time>
      </trkpt>
      <trkpt lat="50.564003" lon="6.278555">
        <ele>0.000000</ele>
        <time>2009-07-28T11:34:09Z</time>
      </trkpt>
      <trkpt lat="50.563888" lon="6.277751">
        <ele>0.000000</ele>
        <time>2009-07-28T11:34:09Z</time>
      </trkpt>
      <trkpt lat="50.563817" lon="6.277162">
        <ele>0.000000</ele>
        <time>2009-07-28T11:34:09Z</time>
      </trkpt>
      <trkpt lat="50.563766" lon="6.276784">
        <ele>0.000000</ele>
        <time>2009-07-28T11:34:09Z</time>
      </trkpt>
      <trkpt lat="50.563766" lon="6.276324">
        <ele>0.000000</ele>
        <time>2009-07-28T11:34:09Z</time>
      </trkpt>
      <trkpt lat="50.563795" lon="6.275905">
        <ele>0.000000</ele>
        <time>2009-07-28T11:34:09Z</time>
      </trkpt>
      <trkpt lat="50.563941" lon="6.275213">
        <ele>0.000000</ele>
        <time>2009-07-28T11:34:09Z</time>
      </trkpt>
      <trkpt lat="50.564056" lon="6.274849">
        <ele>0.000000</ele>
        <time>2009-07-28T11:34:09Z</time>
      </trkpt>
      <trkpt lat="50.564221" lon="6.274840">
        <ele>0.000000</ele>
        <time>2009-07-28T11:34:09Z</time>
      </trkpt>
      <trkpt lat="50.564313" lon="6.274835">
        <ele>0.000000</ele>
        <time>2009-07-28T11:34:09Z</time>
      </trkpt>
      <trkpt lat="50.564465" lon="6.274886">
        <ele>0.000000</ele>
        <time>2009-07-28T11:34:09Z</time>
      </trkpt>
      <trkpt lat="50.564750" lon="6.274706">
        <ele>0.000000</ele>
        <time>2009-07-28T11:34:09Z</time>
      </trkpt>
      <trkpt lat="50.564905" lon="6.274595">
        <ele>0.000000</ele>
        <time>2009-07-28T11:34:09Z</time>
      </trkpt>
      <trkpt lat="50.565029" lon="6.274460">
        <ele>0.000000</ele>
        <time>2009-07-28T11:34:09Z</time>
      </trkpt>
      <trkpt lat="50.565217" lon="6.274274">
        <ele>0.000000</ele>
        <time>2009-07-28T11:34:09Z</time>
      </trkpt>
      <trkpt lat="50.565522" lon="6.273936">
        <ele>0.000000</ele>
        <time>2009-07-28T11:34:09Z</time>
      </trkpt>
      <trkpt lat="50.565784" lon="6.273612">
        <ele>0.000000</ele>
        <time>2009-07-28T11:34:09Z</time>
      </trkpt>
      <trkpt lat="50.566189" lon="6.273236">
        <ele>0.000000</ele>
        <time>2009-07-28T11:34:09Z</time>
      </trkpt>
      <trkpt lat="50.566639" lon="6.272786">
        <ele>0.000000</ele>
        <time>2009-07-28T11:34:09Z</time>
      </trkpt>
      <trkpt lat="50.566843" lon="6.272485">
        <ele>0.000000</ele>
        <time>2009-07-28T11:34:09Z</time>
      </trkpt>
      <trkpt lat="50.567034" lon="6.272185">
        <ele>0.000000</ele>
        <time>2009-07-28T11:34:09Z</time>
      </trkpt>
      <trkpt lat="50.567225" lon="6.271927">
        <ele>0.000000</ele>
        <time>2009-07-28T11:34:09Z</time>
      </trkpt>
      <trkpt lat="50.567402" lon="6.271648">
        <ele>0.000000</ele>
        <time>2009-07-28T11:34:09Z</time>
      </trkpt>
      <trkpt lat="50.567579" lon="6.271391">
        <ele>0.000000</ele>
        <time>2009-07-28T11:34:09Z</time>
      </trkpt>
      <trkpt lat="50.567429" lon="6.271176">
        <ele>0.000000</ele>
        <time>2009-07-28T11:34:09Z</time>
      </trkpt>
      <trkpt lat="50.567266" lon="6.270919">
        <ele>0.000000</ele>
        <time>2009-07-28T11:34:09Z</time>
      </trkpt>
      <trkpt lat="50.567157" lon="6.270790">
        <ele>0.000000</ele>
        <time>2009-07-28T11:34:09Z</time>
      </trkpt>
      <trkpt lat="50.567007" lon="6.270618">
        <ele>0.000000</ele>
        <time>2009-07-28T11:34:09Z</time>
      </trkpt>
      <trkpt lat="50.566911" lon="6.270511">
        <ele>0.000000</ele>
        <time>2009-07-28T11:34:09Z</time>
      </trkpt>
      <trkpt lat="50.566802" lon="6.270382">
        <ele>0.000000</ele>
        <time>2009-07-28T11:34:09Z</time>
      </trkpt>
      <trkpt lat="50.566530" lon="6.270146">
        <ele>0.000000</ele>
        <time>2009-07-28T11:34:09Z</time>
      </trkpt>
      <trkpt lat="50.566775" lon="6.269610">
        <ele>0.000000</ele>
        <time>2009-07-28T11:34:09Z</time>
      </trkpt>
      <trkpt lat="50.566612" lon="6.269395">
        <ele>0.000000</ele>
        <time>2009-07-28T11:34:09Z</time>
      </trkpt>
      <trkpt lat="50.566366" lon="6.269159">
        <ele>0.000000</ele>
        <time>2009-07-28T11:34:09Z</time>
      </trkpt>
      <trkpt lat="50.566121" lon="6.268880">
        <ele>0.000000</ele>
        <time>2009-07-28T11:34:09Z</time>
      </trkpt>
      <trkpt lat="50.565889" lon="6.268644">
        <ele>0.000000</ele>
        <time>2009-07-28T11:34:09Z</time>
      </trkpt>
      <trkpt lat="50.565698" lon="6.268451">
        <ele>0.000000</ele>
        <time>2009-07-28T11:34:09Z</time>
      </trkpt>
      <trkpt lat="50.565262" lon="6.268108">
        <ele>0.000000</ele>
        <time>2009-07-28T11:34:09Z</time>
      </trkpt>
      <trkpt lat="50.565208" lon="6.268022">
        <ele>0.000000</ele>
        <time>2009-07-28T11:34:09Z</time>
      </trkpt>
      <trkpt lat="50.565044" lon="6.267529">
        <ele>0.000000</ele>
        <time>2009-07-28T11:34:09Z</time>
      </trkpt>
      <trkpt lat="50.564908" lon="6.267013">
        <ele>0.000000</ele>
        <time>2009-07-28T11:34:09Z</time>
      </trkpt>
      <trkpt lat="50.564799" lon="6.266692">
        <ele>0.000000</ele>
        <time>2009-07-28T11:34:09Z</time>
      </trkpt>
      <trkpt lat="50.564540" lon="6.265855">
        <ele>0.000000</ele>
        <time>2009-07-28T11:34:09Z</time>
      </trkpt>
      <trkpt lat="50.564145" lon="6.264632">
        <ele>0.000000</ele>
        <time>2009-07-28T11:34:09Z</time>
      </trkpt>
      <trkpt lat="50.563867" lon="6.263874">
        <ele>0.000000</ele>
        <time>2009-07-28T11:34:09Z</time>
      </trkpt>
      <trkpt lat="50.563674" lon="6.263207">
        <ele>0.000000</ele>
        <time>2009-07-28T11:34:09Z</time>
      </trkpt>
      <trkpt lat="50.563586" lon="6.262743">
        <ele>0.000000</ele>
        <time>2009-07-28T11:34:09Z</time>
      </trkpt>
      <trkpt lat="50.563395" lon="6.261993">
        <ele>0.000000</ele>
        <time>2009-07-28T11:34:09Z</time>
      </trkpt>
      <trkpt lat="50.563173" lon="6.261216">
        <ele>0.000000</ele>
        <time>2009-07-28T11:34:09Z</time>
      </trkpt>
      <trkpt lat="50.563030" lon="6.260546">
        <ele>0.000000</ele>
        <time>2009-07-28T11:34:09Z</time>
      </trkpt>
      <trkpt lat="50.562844" lon="6.259698">
        <ele>0.000000</ele>
        <time>2009-07-28T11:34:09Z</time>
      </trkpt>
      <trkpt lat="50.562793" lon="6.259465">
        <ele>0.000000</ele>
        <time>2009-07-28T11:34:09Z</time>
      </trkpt>
      <trkpt lat="50.562604" lon="6.259289">
        <ele>0.000000</ele>
        <time>2009-07-28T11:34:09Z</time>
      </trkpt>
      <trkpt lat="50.562263" lon="6.258924">
        <ele>0.000000</ele>
        <time>2009-07-28T11:34:09Z</time>
      </trkpt>
      <trkpt lat="50.561882" lon="6.258473">
        <ele>0.000000</ele>
        <time>2009-07-28T11:34:09Z</time>
      </trkpt>
      <trkpt lat="50.561528" lon="6.258109">
        <ele>0.000000</ele>
        <time>2009-07-28T11:34:09Z</time>
      </trkpt>
      <trkpt lat="50.561269" lon="6.257808">
        <ele>0.000000</ele>
        <time>2009-07-28T11:34:09Z</time>
      </trkpt>
      <trkpt lat="50.560928" lon="6.257401">
        <ele>0.000000</ele>
        <time>2009-07-28T11:34:09Z</time>
      </trkpt>
      <trkpt lat="50.561078" lon="6.257079">
        <ele>0.000000</ele>
        <time>2009-07-28T11:34:09Z</time>
      </trkpt>
      <trkpt lat="50.561187" lon="6.256843">
        <ele>0.000000</ele>
        <time>2009-07-28T11:34:09Z</time>
      </trkpt>
      <trkpt lat="50.561296" lon="6.256585">
        <ele>0.000000</ele>
        <time>2009-07-28T11:34:09Z</time>
      </trkpt>
      <trkpt lat="50.561432" lon="6.256349">
        <ele>0.000000</ele>
        <time>2009-07-28T11:34:09Z</time>
      </trkpt>
      <trkpt lat="50.561599" lon="6.256062">
        <ele>0.000000</ele>
        <time>2009-07-28T11:34:09Z</time>
      </trkpt>
      <trkpt lat="50.561923" lon="6.255534">
        <ele>0.000000</ele>
        <time>2009-07-28T11:34:09Z</time>
      </trkpt>
      <trkpt lat="50.562345" lon="6.254997">
        <ele>0.000000</ele>
        <time>2009-07-28T11:34:09Z</time>
      </trkpt>
      <trkpt lat="50.562495" lon="6.255362">
        <ele>0.000000</ele>
        <time>2009-07-28T11:34:09Z</time>
      </trkpt>
      <trkpt lat="50.562604" lon="6.255212">
        <ele>0.000000</ele>
        <time>2009-07-28T11:34:09Z</time>
      </trkpt>
      <trkpt lat="50.562699" lon="6.255157">
        <ele>0.000000</ele>
        <time>2009-07-28T11:34:09Z</time>
      </trkpt>
      <trkpt lat="50.562754" lon="6.254675">
        <ele>0.000000</ele>
        <time>2009-07-28T11:34:09Z</time>
      </trkpt>
      <trkpt lat="50.562768" lon="6.254117">
        <ele>0.000000</ele>
        <time>2009-07-28T11:34:09Z</time>
      </trkpt>
      <trkpt lat="50.562850" lon="6.253967">
        <ele>0.000000</ele>
        <time>2009-07-28T11:34:09Z</time>
      </trkpt>
      <trkpt lat="50.562945" lon="6.253839">
        <ele>0.000000</ele>
        <time>2009-07-28T11:34:09Z</time>
      </trkpt>
      <trkpt lat="50.563068" lon="6.253710">
        <ele>0.000000</ele>
        <time>2009-07-28T11:34:09Z</time>
      </trkpt>
      <trkpt lat="50.563218" lon="6.253517">
        <ele>0.000000</ele>
        <time>2009-07-28T11:34:09Z</time>
      </trkpt>
      <trkpt lat="50.563477" lon="6.253259">
        <ele>0.000000</ele>
        <time>2009-07-28T11:34:09Z</time>
      </trkpt>
      <trkpt lat="50.563977" lon="6.252681">
        <ele>0.000000</ele>
        <time>2009-07-28T11:34:09Z</time>
      </trkpt>
      <trkpt lat="50.564545" lon="6.252218">
        <ele>0.000000</ele>
        <time>2009-07-28T11:34:09Z</time>
      </trkpt>
      <trkpt lat="50.564676" lon="6.252079">
        <ele>0.000000</ele>
        <time>2009-07-28T11:34:09Z</time>
      </trkpt>
      <trkpt lat="50.564961" lon="6.251903">
        <ele>0.000000</ele>
        <time>2009-07-28T11:34:09Z</time>
      </trkpt>
      <trkpt lat="50.565126" lon="6.251907">
        <ele>0.000000</ele>
        <time>2009-07-28T11:34:09Z</time>
      </trkpt>
      <trkpt lat="50.565234" lon="6.252051">
        <ele>0.000000</ele>
        <time>2009-07-28T11:34:09Z</time>
      </trkpt>
      <trkpt lat="50.565426" lon="6.252186">
        <ele>0.000000</ele>
        <time>2009-07-28T11:34:09Z</time>
      </trkpt>
      <trkpt lat="50.565508" lon="6.252251">
        <ele>0.000000</ele>
        <time>2009-07-28T11:34:09Z</time>
      </trkpt>
      <trkpt lat="50.565576" lon="6.252309">
        <ele>0.000000</ele>
        <time>2009-07-28T11:34:09Z</time>
      </trkpt>
      <trkpt lat="50.565712" lon="6.252193">
        <ele>0.000000</ele>
        <time>2009-07-28T11:34:09Z</time>
      </trkpt>
      <trkpt lat="50.565895" lon="6.252950">
        <ele>0.000000</ele>
        <time>2009-07-28T11:34:09Z</time>
      </trkpt>
      <trkpt lat="50.566040" lon="6.253535">
        <ele>0.000000</ele>
        <time>2009-07-28T11:34:09Z</time>
      </trkpt>
      <trkpt lat="50.566262" lon="6.254466">
        <ele>0.000000</ele>
        <time>2009-07-28T11:34:09Z</time>
      </trkpt>
      <trkpt lat="50.566368" lon="6.254859">
        <ele>0.000000</ele>
        <time>2009-07-28T11:34:09Z</time>
      </trkpt>
      <trkpt lat="50.566564" lon="6.255023">
        <ele>0.000000</ele>
        <time>2009-07-28T11:34:09Z</time>
      </trkpt>
      <trkpt lat="50.566678" lon="6.255107">
        <ele>0.000000</ele>
        <time>2009-07-28T11:34:09Z</time>
      </trkpt>
      <trkpt lat="50.567020" lon="6.255276">
        <ele>0.000000</ele>
        <time>2009-07-28T11:34:09Z</time>
      </trkpt>
      <trkpt lat="50.567416" lon="6.255506">
        <ele>0.000000</ele>
        <time>2009-07-28T11:34:09Z</time>
      </trkpt>
      <trkpt lat="50.567912" lon="6.255774">
        <ele>0.000000</ele>
        <time>2009-07-28T11:34:09Z</time>
      </trkpt>
      <trkpt lat="50.568451" lon="6.256087">
        <ele>0.000000</ele>
        <time>2009-07-28T11:34:09Z</time>
      </trkpt>
      <trkpt lat="50.568798" lon="6.256267">
        <ele>0.000000</ele>
        <time>2009-07-28T11:34:09Z</time>
      </trkpt>
      <trkpt lat="50.569237" lon="6.256725">
        <ele>0.000000</ele>
        <time>2009-07-28T11:34:09Z</time>
      </trkpt>
      <trkpt lat="50.569655" lon="6.257131">
        <ele>0.000000</ele>
        <time>2009-07-28T11:34:09Z</time>
      </trkpt>
      <trkpt lat="50.569951" lon="6.257434">
        <ele>0.000000</ele>
        <time>2009-07-28T11:34:09Z</time>
      </trkpt>
      <trkpt lat="50.570122" lon="6.257654">
        <ele>0.000000</ele>
        <time>2009-07-28T11:34:09Z</time>
      </trkpt>
      <trkpt lat="50.570378" lon="6.258069">
        <ele>0.000000</ele>
        <time>2009-07-28T11:34:09Z</time>
      </trkpt>
      <trkpt lat="50.570550" lon="6.258366">
        <ele>0.000000</ele>
        <time>2009-07-28T11:34:09Z</time>
      </trkpt>
      <trkpt lat="50.570973" lon="6.258302">
        <ele>0.000000</ele>
        <time>2009-07-28T11:34:09Z</time>
      </trkpt>
      <trkpt lat="50.570905" lon="6.258066">
        <ele>0.000000</ele>
        <time>2009-07-28T11:34:09Z</time>
      </trkpt>
      <trkpt lat="50.570731" lon="6.257667">
        <ele>0.000000</ele>
        <time>2009-07-28T11:34:09Z</time>
      </trkpt>
      <trkpt lat="50.570622" lon="6.257455">
        <ele>0.000000</ele>
        <time>2009-07-28T11:34:09Z</time>
      </trkpt>
      <trkpt lat="50.570202" lon="6.256663">
        <ele>0.000000</ele>
        <time>2009-07-28T11:34:09Z</time>
      </trkpt>
      <trkpt lat="50.569932" lon="6.256134">
        <ele>0.000000</ele>
        <time>2009-07-28T11:34:09Z</time>
      </trkpt>
      <trkpt lat="50.569496" lon="6.255149">
        <ele>0.000000</ele>
        <time>2009-07-28T11:34:09Z</time>
      </trkpt>
      <trkpt lat="50.569188" lon="6.254495">
        <ele>0.000000</ele>
        <time>2009-07-28T11:34:09Z</time>
      </trkpt>
      <trkpt lat="50.569058" lon="6.254225">
        <ele>0.000000</ele>
        <time>2009-07-28T11:34:09Z</time>
      </trkpt>
      <trkpt lat="50.568864" lon="6.253842">
        <ele>0.000000</ele>
        <time>2009-07-28T11:34:09Z</time>
      </trkpt>
      <trkpt lat="50.568728" lon="6.253639">
        <ele>0.000000</ele>
        <time>2009-07-28T11:34:09Z</time>
      </trkpt>
      <trkpt lat="50.568573" lon="6.253412">
        <ele>0.000000</ele>
        <time>2009-07-28T11:34:09Z</time>
      </trkpt>
      <trkpt lat="50.568504" lon="6.253264">
        <ele>0.000000</ele>
        <time>2009-07-28T11:34:09Z</time>
      </trkpt>
      <trkpt lat="50.568397" lon="6.252894">
        <ele>0.000000</ele>
        <time>2009-07-28T11:34:09Z</time>
      </trkpt>
      <trkpt lat="50.568356" lon="6.252294">
        <ele>0.000000</ele>
        <time>2009-07-28T11:34:09Z</time>
      </trkpt>
      <trkpt lat="50.568759" lon="6.252336">
        <ele>0.000000</ele>
        <time>2009-07-28T11:34:09Z</time>
      </trkpt>
      <trkpt lat="50.569140" lon="6.252302">
        <ele>0.000000</ele>
        <time>2009-07-28T11:34:09Z</time>
      </trkpt>
      <trkpt lat="50.569337" lon="6.252315">
        <ele>0.000000</ele>
        <time>2009-07-28T11:34:09Z</time>
      </trkpt>
      <trkpt lat="50.569637" lon="6.252573">
        <ele>0.000000</ele>
        <time>2009-07-28T11:34:09Z</time>
      </trkpt>
      <trkpt lat="50.570196" lon="6.253238">
        <ele>0.000000</ele>
        <time>2009-07-28T11:34:09Z</time>
      </trkpt>
      <trkpt lat="50.570646" lon="6.253688">
        <ele>0.000000</ele>
        <time>2009-07-28T11:34:09Z</time>
      </trkpt>
      <trkpt lat="50.570850" lon="6.253731">
        <ele>0.000000</ele>
        <time>2009-07-28T11:34:09Z</time>
      </trkpt>
      <trkpt lat="50.570986" lon="6.253688">
        <ele>0.000000</ele>
        <time>2009-07-28T11:34:09Z</time>
      </trkpt>
      <trkpt lat="50.571171" lon="6.253769">
        <ele>0.000000</ele>
        <time>2009-07-28T11:34:09Z</time>
      </trkpt>
      <trkpt lat="50.571954" lon="6.254418">
        <ele>0.000000</ele>
        <time>2009-07-28T11:34:09Z</time>
      </trkpt>
      <trkpt lat="50.572594" lon="6.255062">
        <ele>0.000000</ele>
        <time>2009-07-28T11:34:09Z</time>
      </trkpt>
      <trkpt lat="50.572390" lon="6.255662">
        <ele>0.000000</ele>
        <time>2009-07-28T11:34:09Z</time>
      </trkpt>
      <trkpt lat="50.572390" lon="6.256242">
        <ele>0.000000</ele>
        <time>2009-07-28T11:34:09Z</time>
      </trkpt>
      <trkpt lat="50.572213" lon="6.256671">
        <ele>0.000000</ele>
        <time>2009-07-28T11:34:09Z</time>
      </trkpt>
      <trkpt lat="50.572125" lon="6.256817">
        <ele>0.000000</ele>
        <time>2009-07-28T11:34:09Z</time>
      </trkpt>
      <trkpt lat="50.572048" lon="6.256997">
        <ele>0.000000</ele>
        <time>2009-07-28T11:34:09Z</time>
      </trkpt>
      <trkpt lat="50.571777" lon="6.257508">
        <ele>0.000000</ele>
        <time>2009-07-28T11:34:09Z</time>
      </trkpt>
      <trkpt lat="50.571538" lon="6.257753">
        <ele>0.000000</ele>
        <time>2009-07-28T11:34:09Z</time>
      </trkpt>
      <trkpt lat="50.571409" lon="6.257980">
        <ele>0.000000</ele>
        <time>2009-07-28T11:34:09Z</time>
      </trkpt>
      <trkpt lat="50.571150" lon="6.258430">
        <ele>0.000000</ele>
        <time>2009-07-28T11:34:09Z</time>
      </trkpt>
      <trkpt lat="50.571409" lon="6.258516">
        <ele>0.000000</ele>
        <time>2009-07-28T11:34:09Z</time>
      </trkpt>
      <trkpt lat="50.571745" lon="6.258679">
        <ele>0.000000</ele>
        <time>2009-07-28T11:34:09Z</time>
      </trkpt>
      <trkpt lat="50.571722" lon="6.258945">
        <ele>0.000000</ele>
        <time>2009-07-28T11:34:09Z</time>
      </trkpt>
      <trkpt lat="50.571750" lon="6.259117">
        <ele>0.000000</ele>
        <time>2009-07-28T11:34:09Z</time>
      </trkpt>
      <trkpt lat="50.571763" lon="6.259632">
        <ele>0.000000</ele>
        <time>2009-07-28T11:34:09Z</time>
      </trkpt>
      <trkpt lat="50.571804" lon="6.260276">
        <ele>0.000000</ele>
        <time>2009-07-28T11:34:09Z</time>
      </trkpt>
      <trkpt lat="50.571859" lon="6.260490">
        <ele>0.000000</ele>
        <time>2009-07-28T11:34:09Z</time>
      </trkpt>
      <trkpt lat="50.572003" lon="6.260976">
        <ele>0.000000</ele>
        <time>2009-07-28T11:34:09Z</time>
      </trkpt>
      <trkpt lat="50.572131" lon="6.261714">
        <ele>0.000000</ele>
        <time>2009-07-28T11:34:09Z</time>
      </trkpt>
      <trkpt lat="50.572240" lon="6.262228">
        <ele>0.000000</ele>
        <time>2009-07-28T11:34:09Z</time>
      </trkpt>
      <trkpt lat="50.572472" lon="6.263237">
        <ele>0.000000</ele>
        <time>2009-07-28T11:34:09Z</time>
      </trkpt>
      <trkpt lat="50.572608" lon="6.263173">
        <ele>0.000000</ele>
        <time>2009-07-28T11:34:09Z</time>
      </trkpt>
      <trkpt lat="50.572731" lon="6.263087">
        <ele>0.000000</ele>
        <time>2009-07-28T11:34:09Z</time>
      </trkpt>
      <trkpt lat="50.572867" lon="6.262980">
        <ele>0.000000</ele>
        <time>2009-07-28T11:34:09Z</time>
      </trkpt>
      <trkpt lat="50.573031" lon="6.262894">
        <ele>0.000000</ele>
        <time>2009-07-28T11:34:09Z</time>
      </trkpt>
      <trkpt lat="50.573480" lon="6.262593">
        <ele>0.000000</ele>
        <time>2009-07-28T11:34:09Z</time>
      </trkpt>
    </trkseg>
  </trk>

</gpx>
